Regional Weather Roundup
Issued by NWS

Home | Current Version | Previous Version | Graphics & Text | Print | Product List | Glossary Off
Versions: 1 2 3 4 5 6 7 8 9 10 11 12 13 14 15 16 17 18 19 20 21 22 23 24 25 26 27 28 29 30 31 32 33 34 35 36 37 38 39 40 41 42 43 44 45 46 47 48 49 50

000
ASUS43 KMKX 290621
RWRWI

WISCONSIN REGIONAL WEATHER ROUNDUP
NATIONAL WEATHER SERVICE MILWAUKEE/SULLIVAN WI
100 AM CDT THU SEP 29 2016

NOTE: "FAIR" INDICATES FEW OR NO CLOUDS BELOW 12,000 FEET WITH NO
SIGNIFICANT WEATHER AND/OR OBSTRUCTIONS TO VISIBILITY.

WIZ001-002-006>008-014>016-023>028-290700-
NORTHWEST WISCONSIN

CITY           SKY/WX    TMP DP  RH WIND       PRES   REMARKS
SUPERIOR ARPT  CLOUDY    49  49  99 CALM      30.41S
6HR MIN TEMP:  49; 6HR MAX TEMP:  55;

ASHLAND        PTCLDY    50  48  93 NE12      30.40S
6HR MIN TEMP:  49; 6HR MAX TEMP:  55;

HAYWARD        FOG       46  45  96 N7        30.40R VSB 1/4
6HR MIN TEMP:  43; 6HR MAX TEMP:  54;

SIREN          FOG       43  42  97 CALM      30.40R VSB 3/4
6HR MIN TEMP:  43; 6HR MAX TEMP:  56;

CUMBERLAND     CLEAR     46  45  93 N6        30.38R
RICE LAKE      CLEAR     48  46  93 N5        30.39R
6HR MIN TEMP:  47; 6HR MAX TEMP:  57;

CHETEK         NOT AVBL
LADYSMITH      CLEAR     50  48  94 N6        30.39R
6HR MIN TEMP:  50; 6HR MAX TEMP:  55;

EAU CLAIRE     CLEAR     52  50  93 N6        30.35R
6HR MIN TEMP:  51; 6HR MAX TEMP:  59;

MENOMONIE      CLEAR     49  48  93 N3        30.36S
6HR MIN TEMP:  49; 6HR MAX TEMP:  59;

NEW RICHMOND   CLEAR     46  46  98 CALM      30.38R
6HR MIN TEMP:  46; 6HR MAX TEMP:  56;

OSCEOLA        CLEAR     43  43 100 CALM      30.41S
6HR MIN TEMP:  43; 6HR MAX TEMP:  58;

$$

WIZ003>005-009-010-017-018-290700-
NORTH CENTRAL WISCONSIN

CITY           SKY/WX    TMP DP  RH WIND       PRES   REMARKS
MANITOWISH WTR NOT AVBL
ARBOR VITAE    CLEAR     51  49  94 N3        30.36S
6HR MIN TEMP:  51; 6HR MAX TEMP:  55;

WOODRUFF       CLEAR     51  49  94 N3        30.36S
6HR MIN TEMP:  51; 6HR MAX TEMP:  55;

RHINELANDER    CLEAR     47  47 100 CALM      30.36S
6HR MIN TEMP:  47; 6HR MAX TEMP:  54;

EAGLE RIVER    CLEAR     46  46 100 CALM      30.36S
6HR MIN TEMP:  46; 6HR MAX TEMP:  52;

LAND O LAKES   MOCLDY    49  48  99 NE6       30.38S
6HR MIN TEMP:  48; 6HR MAX TEMP:  53;

PHILLIPS       PTCLDY    48  48 100 NE3       30.35F
6HR MIN TEMP:  48; 6HR MAX TEMP:  55;

TOMAHAWK       CLEAR     47  46  95 CALM      30.36F
6HR MIN TEMP:  47; 6HR MAX TEMP:  56;

MEDFORD        CLEAR     49  49 100 NE8       30.34S
6HR MIN TEMP:  49; 6HR MAX TEMP:  54;

MERRILL        CLEAR     49  49  99 N6        30.35S
6HR MIN TEMP:  49; 6HR MAX TEMP:  56;

$$

WIZ029-030-035-036-043>047-290700-
CENTRAL WISCONSIN

CITY           SKY/WX    TMP DP  RH WIND       PRES   REMARKS
WAUSAU         CLEAR     50  48  93 N7        30.32R
6HR MIN TEMP:  50; 6HR MAX TEMP:  57;

MOSINEE        CLEAR     50  48  93 N10       30.33S
MARSHFIELD     CLEAR     53  48  83 NE9       30.31S
6HR MIN TEMP:  53; 6HR MAX TEMP:  58;

STEVENS POINT  CLEAR     48  48  98 N7        30.31S
6HR MIN TEMP:  48; 6HR MAX TEMP:  54;

WAUPACA        CLEAR     54  52  94 N6        30.28S
6HR MIN TEMP:  52; 6HR MAX TEMP:  58;

WAUTOMA        CLEAR     52  50  93 N8        30.27S
6HR MIN TEMP:  50; 6HR MAX TEMP:  57;

WISC RAPIDS    CLEAR     51  50  96 N10       30.31S
6HR MIN TEMP:  50; 6HR MAX TEMP:  57;

CAMP DOUGLAS   CLEAR     47  46  97 NW3       30.30R
6HR MIN TEMP:  42; 6HR MAX TEMP:  55;

$$

WIZ011>013-019>022-031-037>040-048>050-290700-
NORTHEAST WISCONSIN

CITY           SKY/WX    TMP DP  RH WIND       PRES   REMARKS
ANTIGO         CLEAR     47  46  97 CALM      30.33S
6HR MIN TEMP:  47; 6HR MAX TEMP:  52;

SHAWANO        CLEAR     55  50  86 N13G20    30.29F
6HR MIN TEMP:  54; 6HR MAX TEMP:  59;

OCONTO         NOT AVBL
STURGEON BAY   CLEAR     57  55  93 N14G20    30.26S
6HR MIN TEMP:  56; 6HR MAX TEMP:  59; 6HR PCP:  0.21;

GREEN BAY      CLEAR     53  53 100 N10       30.27R
6HR MIN TEMP:  52; 6HR MAX TEMP:  58;

MANITOWOC      PTCLDY    57  53  86 MISG      30.23S
6HR MIN TEMP:  56; 6HR MAX TEMP:  59;

APPLETON       CLEAR     52  52 100 N13       30.25S
CLINTONVILLE   CLEAR     52  48  87 N9        30.28F
OSHKOSH        MOCLDY    55  51  86 N14       30.24S
6HR MIN TEMP:  53; 6HR MAX TEMP:  59;

$$

WIZ032>034-041-042-053>061-290700-
SOUTHWEST WISCONSIN

CITY           SKY/WX    TMP DP  RH WIND       PRES   REMARKS
LA CROSSE      CLEAR     56  53  90 N7        30.31R
6HR MIN TEMP:  55; 6HR MAX TEMP:  61;

SPARTA         CLEAR     50  49  98 N3        30.32R
6HR MIN TEMP:  49; 6HR MAX TEMP:  58;

VIROQUA        CLEAR     49  49  98 N7        30.30R
6HR MIN TEMP:  49; 6HR MAX TEMP:  56;

BOSCOBEL       CLEAR     47  46  97 CALM      30.28R FOG
6HR MIN TEMP:  46; 6HR MAX TEMP:  60;

PRAIRIE DU CHI CLEAR     51  48  91 CALM      30.27S
6HR MIN TEMP:  51; 6HR MAX TEMP:  60;

PLATTEVILLE    CLEAR     51  51 100 N8        30.24S
6HR MIN TEMP:  50; 6HR MAX TEMP:  56;

$$

WIZ056-057-062-063-064-067-068-290700-
SOUTH CENTRAL WISCONSIN

CITY           SKY/WX    TMP DP  RH WIND       PRES   REMARKS
REEDSBURG      NOT AVBL
BARABOO/DELLS  CLEAR     50  48  93 CALM      30.26S
6HR MIN TEMP:  50; 6HR MAX TEMP:  56;

LONE ROCK      CLEAR     49  47  93 W3        30.26S
6HR MIN TEMP:  46; 6HR MAX TEMP:  56;

MINERAL POINT  CLEAR     52  50  93 N8        30.24S
MADISON        CLEAR     52  50  93 N12       30.22R
6HR MIN TEMP:  51; 6HR MAX TEMP:  55;

MIDDLETON      CLEAR     54  53  97 N8        30.23S
6HR MIN TEMP:  54; 6HR MAX TEMP:  56;

WATERTOWN      CLEAR     55  55 100 N10G16    30.19S
6HR MIN TEMP:  53; 6HR MAX TEMP:  57;

MONROE         CLEAR     52  50  93 N12       30.20S
JANESVILLE     CLEAR     55  52  88 N9G17     30.17S
$$

WIZ051-052-058>065-066-070>072-290700-
SOUTHEAST WISCONSIN

CITY           SKY/WX    TMP DP  RH WIND       PRES   REMARKS
MILWAUKEE      MOCLDY    59  55  87 N18G26    30.15R
6HR MIN TEMP:  59; 6HR MAX TEMP:  62;

WAUKESHA       CLEAR     54  52  94 N12G20    30.18S
MILWAUKEE/TIMM CLEAR     55  50  82 N12       30.17S
RACINE         PTCLDY    57  54  89 N21       30.15R
6HR MIN TEMP:  56; 6HR MAX TEMP:  58; 6HR PCP:  0.03;

BURLINGTON     CLEAR     54  51  91 N9        30.15S
6HR MIN TEMP:  53; 6HR MAX TEMP:  56;

KENOSHA        MOCLDY    59  54  83 N10       30.12S
6HR MIN TEMP:  54; 6HR MAX TEMP:  60; 6HR PCP:  0.12;

FOND DU LAC    CLOUDY    57  53  86 N15       30.24R
6HR MIN TEMP:  57; 6HR MAX TEMP:  59;

SHEBOYGAN      PTCLDY    57  53  86 N13       30.20S
6HR MIN TEMP:  56; 6HR MAX TEMP:  58;

WEST BEND      MOCLDY    55  52  88 NE16G23   30.19S
JUNEAU         CLEAR     54  52  94 N12       30.22S
6HR MIN TEMP:  52; 6HR MAX TEMP:  56;

$$

LSZ147-162-290700-
LAKE SUPERIOR

STATION/POSITION TIME  TEMP    WIND        PRES    WAVE
                       AIR SEA DIR/SP/G            HT/PER
                 (UTC) (F)     (DEG/KT/KT) (MB)    (FT/S)
W MID LAKE BUOY  0550   56 54   30/  8/ 10 1029.4R   1/ 6
DEVILS ISLAND    0600   53      20/  6/  7 1030.1R
SAXON HARBOR     0500   51     190/  2/  3 1028.4S
$$

LMZ867-665-643>646-290700-
LAKE MICHIGAN

STATION/POSITION TIME  TEMP    WIND        PRES    WAVE
                       AIR SEA DIR/SP/G            HT/PER
                 (UTC) (F)     (DEG/KT/KT) (MB)    (FT/S)
CHAMBERS ISLAND  0500   58     350/ 19/ 22 1024.7R
S GREEN BAY BUOY 0500   57 62   40/ 21/ 25 1024.0
N MID LAKE BUOY  0550   62 66  360/ 21/ 23 1023.8S   4/ 5
NORTHPORT PIER   0C1F1C2F2C3F3C4F4C5F5C6F6C7F7C8M1C9M2Ca!


USA.gov is the U.S. government's official web portal to all federal, state and local government web resources and services.